Regional Weather Roundup
Issued by NWS Green Bay, WI

Home | Current Version | Previous Version | Text Only | Print | Product List | Glossary On
Versions: 1 2 3 4 5 6 7 8 9 10 11 12 13 14 15 16 17 18 19 20 21 22 23 24 25 26 27 28 29 30 31 32 33 34 35 36 37 38 39 40 41 42 43 44 45 46 47 48 49 50
000
ASUS43 KGRB 200859
RWRGRB

NORTH-CENTRAL AND NORTHEAST WISCONSIN REGIONAL WEATHER ROUNDUP
NATIONAL WEATHER SERVICE GREEN BAY WI
400 AM CDT WED AUG 20 2014

WIZ005-009-010>012-018-019-201000-
NORTH CENTRAL WISCONSIN

CITY           SKY/WX    TMP DP  RH WIND       PRES   REMARKS
IRONWOOD       CLOUDY    55  55 100 CALM      29.81S VSB 3/4
MANITOWISH WTR NOT AVBL
ARBOR VITAE    NOT AVBL
EAGLE RIVER    NOT AVBL
LAND O LAKES   NOT AVBL
RHINELANDER    CLOUDY    59  57  93 CALM      29.82R
PHILLIPS       CLOUDY    58  57  96 NW3       29.82R
ANTIGO         NOT AVBL
TOMAHAWK       NOT AVBL
MERRILL        NOT AVBL
$$

WIZ013-073-201000-
NORTHEAST WISCONSIN

CITY           SKY/WX    TMP DP  RH WIND       PRES   REMARKS
IRON MOUNTAIN  CLOUDY    59  56  89 NW9       29.77R
MARINETTE      CLOUDY    63  59  88 NW3       29.76R
$$

WIZ017-030-035>037-045-201000-
CENTRAL WISCONSIN

CITY           SKY/WX    TMP DP  RH WIND       PRES   REMARKS
MEDFORD        NOT AVBL
WAUSAU         MOCLDY    61  59  93 CALM      29.81R
MOSINEE        CLOUDY    59  59 100 CALM      29.84R
MARSHFIELD     FOG       61  60  97 NW5       29.82R VSB 1/2
WISC RAPIDS    FOG       61  60  97 CALM      29.83R VSB 1/4
STEVENS POINT  NOT AVBL
WAUPACA        CLOUDY    64  62  95 CALM      29.81R
SHAWANO        MOCLDY    60  58  94 CALM      29.80R
CLINTONVILLE   NOT AVBL
$$

WIZ038-039-048-051-201000-
FOX VALLEY

CITY           SKY/WX    TMP DP  RH WIND       PRES   REMARKS
NWS GREEN BAY  MOCLDY    60  60 100 W5        29.79R
APPLETON       NOT AVBL
OSHKOSH        MOCLDY    64  62  93 W5        29.79R
FOND DU LAC    CLEAR     61  59  93 CALM      29.80R
$$

WIZ022-050-052-201000-
EAST CENTRAL WISCONSIN

CITY           SKY/WX    TMP DP  RH WIND       PRES   REMARKS
STURGEON BAY   MOCLDY    61  57  88 CALM      29.78R
MANITOWOC      CLOUDY    64  63  94 CALM      29.78R
SHEBOYGAN      MOCLDY    62  60  93 W3        29.78S
$$

LMZ563-521-522-541>543-201000-
LAKESHORE

STATION/POSITION TIME  TEMP    WIND        PRES    VSBY  WAVE
                       AIR SEA DIR/SP/G                  HT/PER
                 (UTC) (F)     (DEG/KT/KT) (MB)    (MI)  (FT/S)
SHEBOYGAN LKSHOR 0800   66 67  300/  4/  6 1008.2R
KEWAUNEE LKSHORE 0800   64     290/  2/  3 1007.3R
NORTHPORT PIER   0800   63     330/ 10/ 13 1007.5R
N MID LAKE BUOY  0800   62 62  290/ 12/ 14 1005.8S         1/ 5
S GREEN BAY BUOY 0800   65     VRB  8      1009.1R
SISTER BAY LKSHO 0800   64     350/ 11/ 12   N/A
CHAMBERS ISLAND  0800   63     310/  8/ 10 1007.8S
MENOMINEE LKSHOR 0800   63     290/  4/  7 1008.3R
$$


USA.gov is the U.S. government's official web portal to all federal, state and local government web resources and services.